Grand Marais, MN

7:15 AM CST on December 13, 2019 (GMT -0600)
Grand Marais

Weather History for KGNA - November, 2019

Change the Weather History Date:

Thursday, November 14, 2019

  Actual Average (KCKC) Record (KCKC)
Temperature  
Mean Temperature 28 °F -  
Max Temperature 34 °F 31 °F 53 °F (2001)
Min Temperature 21 °F 21 °F -5 °F (2018)
Degree Days  
Heating Degree Days 38    
Moisture  
Dew Point 17 °F    
Average Humidity 67    
Maximum Humidity 82    
Minimum Humidity 56    
Precipitation  
Precipitation 0.00 in - - ()
Sea Level Pressure  
Sea Level Pressure 30.06 in    
Wind  
Wind Speed 8 mph (WSW)    
Max Wind Speed 26 mph    
Max Gust Speed 37 mph    
Averages and records for this station are not official NWS values.
T = Trace of Precipitation, MM = Missing Value Source: NWS Daily Summary

Daily Weather History Graph

Daily Weather History Graph

Search for Another Location

Airport or City:

Astronomy

Nov. 14, 2019 Rise Set
Actual Time 7:05 AM CST 4:25 PM CST
Civil Twilight 6:31 AM CST 4:59 PM CST
Nautical Twilight 5:54 AM CST 5:36 PM CST
Astronomical Twilight 5:17 AM CST 6:13 PM CST
Moon 6:05 PM CST (11/14) 9:06 AM CST (11/14)
Length of Visible Light 10h 27m
Length of Day
9h 20m
Waning Gibbous, 95% of the Moon is Illuminated
Nov 14
Waning Gibbous
Nov 19
Last Quarter
Nov 26
New
Dec 4
First Quarter
Dec 11
Full

Hourly Weather History & Observations

Time (CST) Temp. Windchill Dew Point Humidity Pressure Visibility Wind Dir Wind Speed Gust Speed Precip Events Conditions
12:56 AM 21.9 °F - 17.1 °F 82% 30.07 in - Calm Calm - N/A   Unknown
1:56 AM 23.0 °F - 14.0 °F 68% 30.09 in - Calm Calm - N/A   Unknown
2:56 AM 21.9 °F 15.7 °F 12.0 °F 66% 30.10 in - West 4.6 mph - N/A   Unknown
5:56 AM 21.9 °F 12.5 °F 14.0 °F 72% 30.11 in - West 8.1 mph - N/A   Unknown
6:56 AM 21.9 °F 13.4 °F 14.0 °F 72% 30.12 in - West 6.9 mph - N/A   Unknown
7:56 AM 21.0 °F 12.4 °F 14.0 °F 74% 30.12 in - West 6.9 mph - N/A   Unknown
8:56 AM 21.0 °F 9.3 °F 12.9 °F 71% 30.11 in - WSW 11.5 mph 19.6 mph N/A   Unknown
9:56 AM 24.1 °F 12.5 °F 16.0 °F 71% 30.09 in - WSW 12.7 mph 23.0 mph N/A   Unknown
10:56 AM 25.0 °F 11.3 °F 17.1 °F 72% 30.07 in - SW 18.4 mph - N/A   Unknown
11:56 AM 27.0 °F 13.9 °F 17.1 °F 66% 30.05 in - WSW 18.4 mph 26.5 mph N/A   Unknown
12:56 PM 28.9 °F 15.1 °F 19.9 °F 69% 29.99 in - SW 23.0 mph 28.8 mph N/A   Unknown
1:56 PM 30.9 °F 18.1 °F 19.9 °F 64% 29.97 in - WSW 21.9 mph 29.9 mph N/A   Unknown
2:56 PM 33.1 °F 19.8 °F 24.1 °F 70% 29.96 in - WSW 26.5 mph 36.8 mph N/A   Unknown
3:56 PM 34.0 °F 26.0 °F 19.9 °F 56% 29.95 in - West 10.4 mph 24.2 mph N/A   Unknown
4:56 PM 33.1 °F 24.9 °F 19.9 °F 59% 29.96 in - West 10.4 mph 23.0 mph N/A   Unknown
5:56 PM 30.9 °F 24.3 °F 19.9 °F 64% 29.99 in - West 6.9 mph 25.3 mph N/A   Unknown
6:56 PM 30.9 °F 22.8 °F 21.0 °F 67% 30.02 in - West 9.2 mph 20.7 mph N/A   Unknown
8:56 PM 30.0 °F 25.2 °F 18.0 °F 61% 30.07 in - West 4.6 mph - N/A   Unknown
9:56 PM 28.0 °F 20.8 °F 16.0 °F 61% 30.10 in - Variable 6.9 mph - N/A   Unknown
10:56 PM 27.0 °F 20.5 °F 15.1 °F 61% 30.12 in - West 5.8 mph - N/A   Unknown
11:56 PM 26.1 °F 21.9 °F 14.0 °F 60% 30.14 in - Variable 3.5 mph - N/A   Unknown